Список аэропортов
Фактическая погода:

21 января, 12:50
Температура: +2°C (-1.8*)
Ветер: юго-восточный 4 м/с
Давление: *761 мм
неб. облачность
150 м
разорв. обл.
330 м
облачно
960 м
слаб. дождь
снег
Время (МСК)Темп. СВетерВлажностьДавлениеОблачностьОсадки
09:00+2З, 1 м/с89%1015 гПаоблачно
10:00+2ЮЗ, 1 м/с87%1015 гПаоблачносл. дождь
11:00+2Ю, 2 м/с87%1015 гПаоблачносл. дождь
12:00+3Ю, 3 м/с86%1015 гПаоблачносл. дождь
13:00+3Ю, 4 м/с84%1015 гПаоблачнодождь
14:00+2ЮВ, 4 м/с93%1014 гПаоблачнодождь
15:00+1ЮВ, 4 м/с96%1013 гПаоблачнодождь
16:00+2ЮВ, 6 м/с92%1012 гПаоблачнодождь
17:00+3ЮВ, 6 м/с90%1011 гПаоблачнодождь
18:00+4ЮВ, 5 м/с90%1009 гПаоблачнодождь
19:00+6Ю, 6 м/с90%1008 гПаоблачнодождь
20:00+6Ю, 5 м/с94%1007 гПаоблачнодождь
21:00+6Ю, 4 м/с98%1006 гПаоблачносл. дождь
22:00+8ЮЗ, 4 м/с98%1005 гПаоблачно
23:00+10З, 7 м/с96%1005 гПаоблачно
22 января
00:00+11З, 7 м/с95%1005 гПаоблачно
01:00+11З, 6 м/с94%1005 гПаоблачно
02:00+12З, 7 м/с86%1005 гПаоблачно
03:00+11З, 7 м/с83%1005 гПас прояснениями
04:00+11З, 7 м/с80%1005 гПаоблачно
05:00+10З, 6 м/с82%1005 гПаоблачно
06:00+10З, 6 м/с84%1005 гПаоблачно
07:00+9З, 5 м/с84%1005 гПаоблачно
08:00+9З, 4 м/с85%1005 гПаоблачно
09:00+9З, 3 м/с86%1005 гПаоблачно
10:00+8З, 2 м/с89%1005 гПаоблачно
11:00+8З, 3 м/с90%1005 гПаоблачно
12:00+8З, 3 м/с90%1006 гПаоблачно
13:00+9СЗ, 4 м/с83%1007 гПаоблачно
14:00+10СЗ, 5 м/с69%1007 гПас прояснениями
15:00+10СЗ, 7 м/с62%1009 гПаоблачно
16:00+10СЗ, 7 м/с63%1010 гПас прояснениями
17:00+10СЗ, 9 м/с61%1011 гПаоблачно
18:00+9СЗ, 8 м/с60%1012 гПаоблачно
19:00+9З, 7 м/с60%1013 гПас прояснениями
20:00+9З, 5 м/с62%1014 гПас прояснениями
21:00+9З, 5 м/с62%1015 гПас прояснениями
22:00+8З, 4 м/с69%1016 гПамалооблачно
23:00+6ЮЗ, 3 м/с80%1016 гПамалооблачно
23 января
00:00+6ЮЗ, 3 м/с88%1017 гПас прояснениями
01:00+6ЮЗ, 4 м/с84%1017 гПаоблачно
02:00+7ЮЗ, 4 м/с78%1017 гПаоблачно
03:00+7ЮЗ, 4 м/с76%1018 гПаоблачно
04:00+8ЮЗ, 5 м/с73%1017 гПаоблачно
05:00+8ЮЗ, 5 м/с71%1017 гПаоблачно
06:00+9ЮЗ, 6 м/с71%1016 гПаоблачно
07:00+9Ю, 5 м/с76%1015 гПаоблачно
08:00+9Ю, 6 м/с77%1014 гПаоблачно
09:00+10Ю, 8 м/с82%1013 гПаоблачнодождь